| time (UTC) | temp F | wind direction | speed MPH | gust MPH | rain 1hr in | rain 24hr in | rain mn in | humidity % | barometer mb |
| 20260904181457 | 74 | 76 | 0.0 | 2.0 | 0.00 | 1.57 | 1.54 | 91 | 1013.2 |
| 20260904180958 | 74 | 76 | 0.0 | 3.0 | 0.00 | 1.57 | 1.54 | 91 | 1013.2 |
| 20260904180457 | 73 | 138 | 1.0 | 3.0 | 0.00 | 1.57 | 1.54 | 91 | 1013.2 |
| 20260904175958 | 74 | 93 | 0.0 | 2.0 | 0.00 | 1.81 | 1.54 | 92 | 1013.3 |
| 20260904175457 | 73 | 33 | 1.0 | 2.0 | 0.00 | 1.81 | 1.54 | 92 | 1013.3 |
| 20260904174957 | 73 | 74 | 1.0 | 2.0 | 0.00 | 1.81 | 1.54 | 92 | 1013.3 |
| 20260904174458 | 73 | 49 | 1.0 | 2.0 | 0.00 | 1.81 | 1.54 | 92 | 1013.5 |
| 20260904173957 | 73 | 84 | 0.0 | 2.0 | 0.00 | 1.81 | 1.54 | 92 | 1013.5 |
| 20260904173457 | 72 | 70 | 0.0 | 2.0 | 0.00 | 1.81 | 1.54 | 92 | 1013.5 |
| 20260904172957 | 72 | 70 | 0.0 | 2.0 | 0.00 | 1.81 | 1.54 | 92 | 1013.4 |
| 20260904172457 | 72 | 4 | 1.0 | 2.0 | 0.00 | 1.81 | 1.54 | 92 | 1013.3 |
| 20260904171958 | 72 | 100 | 0.0 | 2.0 | 0.00 | 1.81 | 1.54 | 92 | 1013.3 |
| 20260904171458 | 72 | 93 | 1.0 | 2.0 | 0.01 | 1.81 | 1.54 | 92 | 1013.2 |
| 20260904170958 | 72 | 68 | 1.0 | 2.0 | 0.01 | 1.81 | 1.54 | 92 | 1013.3 |
| 20260904170457 | 71 | 70 | 0.0 | 2.0 | 0.01 | 1.81 | 1.54 | 92 | 1013.1 |
| 20260904165958 | 71 | 37 | 0.0 | 1.0 | 0.01 | 1.81 | 1.54 | 93 | 1013.2 |
| 20260904165458 | 71 | 37 | 0.0 | 1.0 | 0.01 | 1.81 | 1.54 | 93 | 1013.1 |
| 20260904161957 | 69 | 238 | 0.0 | 2.0 | 0.01 | 1.81 | 1.54 | 92 | 1013.8 |
| 20260904161457 | 69 | 238 | 1.0 | 3.0 | 0.01 | 1.80 | 1.53 | 92 | 1013.8 |
| 20260904160957 | 69 | 182 | 1.0 | 3.0 | 0.02 | 1.80 | 1.53 | 92 | 1013.8 |
| 20260904160457 | 69 | 5 | 0.0 | 1.0 | 0.02 | 1.80 | 1.53 | 92 | 1013.8 |
| 20260904155958 | 69 | 1 | 0.0 | 1.0 | 0.02 | 1.80 | 1.53 | 92 | 1013.9 |
| 20260904155457 | 69 | 1 | 0.0 | 2.0 | 0.02 | 1.80 | 1.53 | 92 | 1014.1 |
| 20260904154957 | 69 | 1 | 0.0 | 2.0 | 0.02 | 1.80 | 1.53 | 92 | 1013.8 |
| 20260904154457 | 69 | 95 | 1.0 | 2.0 | 0.02 | 1.80 | 1.53 | 92 | 1013.3 |
| 20260904153957 | 69 | 95 | 0.0 | 2.0 | 0.03 | 1.80 | 1.53 | 92 | 1013.1 |
| 20260904153456 | 69 | 99 | 1.0 | 2.0 | 0.04 | 1.80 | 1.53 | 92 | 1013.1 |
| 20260904152957 | 69 | 149 | 0.0 | 1.0 | 0.06 | 1.80 | 1.53 | 92 | 1013.7 |
| 20260904152457 | 69 | 149 | 0.0 | 1.0 | 0.08 | 1.80 | 1.53 | 92 | 1013.6 |
| 20260904151957 | 69 | 148 | 1.0 | 2.0 | 0.09 | 1.80 | 1.53 | 92 | 1013.7 |
| 20260904151457 | 69 | 149 | 1.0 | 2.0 | 0.10 | 1.79 | 1.52 | 92 | 1013.6 |
| 20260904150957 | 69 | 212 | 0.0 | 2.0 | 0.10 | 1.78 | 1.51 | 92 | 1013.1 |
| 20260904150457 | 69 | 212 | 0.0 | 3.0 | 0.11 | 1.78 | 1.51 | 92 | 1013.0 |
| 20260904145958 | 69 | 360 | 1.0 | 5.0 | 0.13 | 1.78 | 1.51 | 92 | 1012.2 |
| 20260904145457 | 69 | 197 | 2.0 | 5.0 | 0.14 | 1.78 | 1.51 | 92 | 1012.8 |
| 20260904144957 | 69 | 326 | 2.0 | 11.0 | 0.15 | 1.78 | 1.51 | 92 | 1013.0 |
| 20260904144457 | 69 | 170 | 4.0 | 11.0 | 0.16 | 1.78 | 1.51 | 92 | 1012.3 |
| 20260904143957 | 69 | 224 | 4.0 | 10.0 | 0.17 | 1.77 | 1.50 | 92 | 1012.6 |
| 20260904143457 | 69 | 244 | 5.0 | 13.0 | 0.18 | 1.76 | 1.49 | 92 | 1012.8 |
| 20260904142957 | 69 | 247 | 4.0 | 13.0 | 0.18 | 1.74 | 1.47 | 92 | 1013.5 |
| 20260904142457 | 69 | 203 | 3.0 | 5.0 | 0.18 | 1.72 | 1.45 | 92 | 1013.9 |
| 20260904134458 | 69 | 102 | 0.0 | 3.0 | 0.23 | 1.62 | 1.35 | 92 | 1013.4 |
| 20260904133958 | 69 | 260 | 1.0 | 3.0 | 0.22 | 1.60 | 1.33 | 92 | 1013.9 |
| 20260904133458 | 69 | 168 | 1.0 | 3.0 | 0.22 | 1.58 | 1.31 | 92 | 1014.5 |
| 20260904132959 | 69 | 213 | 1.0 | 2.0 | 0.21 | 1.56 | 1.29 | 92 | 1014.7 |
| 20260904132458 | 69 | 288 | 0.0 | 2.0 | 0.21 | 1.54 | 1.27 | 92 | 1015.1 |
| 20260904131958 | 70 | 280 | 0.0 | 3.0 | 0.22 | 1.53 | 1.26 | 92 | 1015.3 |
| 20260904131457 | 70 | 9 | 1.0 | 3.0 | 0.22 | 1.52 | 1.25 | 92 | 1015.2 |
| 20260904123459 | 69 | 101 | 0.0 | 1.0 | 0.11 | 1.38 | 1.09 | 92 | 1014.6 |
| 20260904122959 | 69 | 101 | 0.0 | 1.0 | 0.11 | 1.37 | 1.08 | 92 | 1014.6 |
| 20260904122459 | 69 | 101 | 0.0 | 1.0 | 0.14 | 1.35 | 1.06 | 92 | 1014.7 |
| 20260904121957 | 69 | 101 | 0.0 | 1.0 | 0.48 | 1.33 | 1.04 | 92 | 1014.8 |
| 20260904121458 | 69 | 101 | 0.0 | 0.0 | 0.57 | 1.32 | 1.03 | 92 | 1014.7 |
| 20260904120957 | 69 | 101 | 0.0 | 1.0 | 0.60 | 1.32 | 1.03 | 92 | 1014.5 |
| 20260904120458 | 69 | 101 | 0.0 | 1.0 | 0.60 | 1.31 | 1.02 | 92 | 1014.5 |
| 20260904120000 | 69 | 101 | 0.0 | 0.0 | 0.60 | 1.31 | 1.02 | 92 | 1014.6 |
| 20260904115457 | 69 | 101 | 0.0 | 0.0 | 0.61 | 1.31 | 1.02 | 92 | 1014.5 |
| 20260904114958 | 69 | 101 | 0.0 | 1.0 | 0.60 | 1.30 | 1.01 | 92 | 1014.5 |
| 20260904114457 | 69 | 101 | 0.0 | 2.0 | 0.60 | 1.30 | 1.01 | 92 | 1014.4 |
| 20260904113958 | 69 | 101 | 1.0 | 2.0 | 0.59 | 1.28 | 0.99 | 92 | 1014.3 |
| 20260904113458 | 69 | 192 | 1.0 | 3.0 | 0.58 | 1.27 | 0.98 | 92 | 1014.8 |
| 20260904112957 | 69 | 137 | 2.0 | 6.0 | 0.57 | 1.26 | 0.97 | 92 | 1014.6 |
| 20260904112457 | 70 | 247 | 1.0 | 6.0 | 0.48 | 1.16 | 0.87 | 92 | 1015.0 |
| 20260904111958 | 70 | 350 | 2.0 | 5.0 | 0.17 | 0.85 | 0.56 | 92 | 1014.9 |
| 20260904111457 | 70 | 280 | 1.0 | 3.0 | 0.07 | 0.75 | 0.46 | 92 | 1014.2 |
| 20260904110957 | 70 | 124 | 0.0 | 1.0 | 0.04 | 0.72 | 0.43 | 92 | 1013.6 |
| 20260904110458 | 70 | 124 | 0.0 | 2.0 | 0.03 | 0.71 | 0.42 | 92 | 1013.8 |
| 20260904105957 | 70 | 82 | 0.0 | 2.0 | 0.02 | 0.70 | 0.41 | 92 | 1013.5 |
| 20260904105456 | 70 | 214 | 0.0 | 1.0 | 0.02 | 0.70 | 0.41 | 92 | 1013.4 |
| 20260904104956 | 70 | 214 | 0.0 | 1.0 | 0.02 | 0.70 | 0.41 | 92 | 1013.5 |
| 20260904104456 | 70 | 202 | 0.0 | 1.0 | 0.02 | 0.70 | 0.41 | 92 | 1013.3 |
| 20260904103957 | 70 | 202 | 0.0 | 3.0 | 0.01 | 0.69 | 0.40 | 92 | 1012.8 |
| 20260904103457 | 70 | 202 | 1.0 | 3.0 | 0.01 | 0.69 | 0.40 | 92 | 1012.8 |
| 20260904102957 | 69 | 116 | 0.0 | 1.0 | 0.01 | 0.69 | 0.40 | 92 | 1013.1 |
| 20260904102457 | 69 | 116 | 0.0 | 1.0 | 0.00 | 0.68 | 0.39 | 92 | 1012.9 |
| 20260904101956 | 69 | 149 | 0.0 | 1.0 | 0.00 | 0.68 | 0.39 | 92 | 1012.6 |
| 20260904101457 | 69 | 149 | 0.0 | 1.0 | 0.00 | 0.68 | 0.39 | 92 | 1012.5 |
| 20260904100957 | 69 | 149 | 0.0 | 1.0 | 0.00 | 0.68 | 0.39 | 92 | 1012.6 |
| 20260904100457 | 69 | 149 | 0.0 | 1.0 | 0.00 | 0.68 | 0.39 | 92 | 1012.6 |
| 20260904095957 | 69 | 86 | 0.0 | 1.0 | 0.00 | 0.68 | 0.39 | 92 | 1012.4 |
| 20260904095457 | 69 | 86 | 0.0 | 1.0 | 0.00 | 0.68 | 0.39 | 92 | 1012.2 |
| 20260904094957 | 69 | 86 | 0.0 | 1.0 | 0.00 | 0.68 | 0.39 | 92 | 1012.1 |
| 20260904094456 | 69 | 86 | 0.0 | 1.0 | 0.00 | 0.68 | 0.39 | 92 | 1012.3 |
| 20260904093958 | 69 | 113 | 0.0 | 1.0 | 0.00 | 0.68 | 0.39 | 92 | 1012.5 |
| 20260904093456 | 69 | 113 | 0.0 | 1.0 | 0.00 | 0.68 | 0.39 | 92 | 1012.2 |
| 20260904092956 | 69 | 78 | 0.0 | 2.0 | 0.00 | 0.68 | 0.39 | 92 | 1012.1 |
| 20260904092456 | 69 | 61 | 0.0 | 1.0 | 0.00 | 0.68 | 0.39 | 92 | 1012.1 |
| 20260904091956 | 70 | 61 | 0.0 | 1.0 | 0.00 | 0.68 | 0.39 | 92 | 1012.2 |
| 20260904091456 | 70 | 61 | 0.0 | 1.0 | 0.01 | 0.68 | 0.39 | 92 | 1012.3 |
| 20260904090957 | 70 | 61 | 0.0 | 1.0 | 0.01 | 0.68 | 0.39 | 92 | 1012.2 |
| 20260904090457 | 70 | 61 | 0.0 | 2.0 | 0.03 | 0.68 | 0.39 | 92 | 1012.1 |
| 20260904085957 | 70 | 64 | 1.0 | 2.0 | 0.19 | 0.68 | 0.39 | 92 | 1011.9 |
| 20260904085456 | 70 | 64 | 0.0 | 2.0 | 0.22 | 0.68 | 0.39 | 92 | 1011.9 |
| 20260904084959 | 70 | 61 | 1.0 | 2.0 | 0.27 | 0.68 | 0.39 | 92 | 1012.3 |
| 20260904084456 | 70 | 63 | 1.0 | 2.0 | 0.39 | 0.68 | 0.39 | 92 | 1012.7 |
| 20260904083957 | 70 | 355 | 0.0 | 2.0 | 0.39 | 0.68 | 0.39 | 92 | 1012.9 |
| 20260904083457 | 70 | 355 | 0.0 | 2.0 | 0.39 | 0.68 | 0.39 | 92 | 1012.7 |
| 20260904082957 | 70 | 333 | 0.0 | 2.0 | 0.39 | 0.68 | 0.39 | 92 | 1012.8 |
| 20260904082457 | 70 | 333 | 0.0 | 2.0 | 0.39 | 0.68 | 0.39 | 92 | 1012.8 |
| 20260904074458 | 69 | 315 | 1.0 | 2.0 | 0.00 | 0.29 | 0.00 | 91 | 1013.2 |
| 20260904073958 | 69 | 39 | 0.0 | 1.0 | 0.00 | 0.29 | 0.00 | 91 | 1013.1 |
| 20260904073458 | 69 | 39 | 0.0 | 1.0 | 0.00 | 0.29 | 0.00 | 91 | 1012.6 |
| 20260904072958 | 69 | 39 | 0.0 | 0.0 | 0.00 | 0.29 | 0.00 | 91 | 1012.7 |
| 20260904072458 | 69 | 39 | 0.0 | 0.0 | 0.00 | 0.29 | 0.00 | 91 | 1012.6 |
| 20260904071957 | 69 | 39 | 0.0 | 0.0 | 0.00 | 0.29 | 0.00 | 91 | 1013.1 |
| 20260904071457 | 69 | 39 | 0.0 | 0.0 | 0.00 | 0.29 | 0.00 | 91 | 1013.2 |
| 20260904070957 | 69 | 39 | 0.0 | 0.0 | 0.00 | 0.29 | 0.00 | 91 | 1013.3 |
| 20260904070457 | 69 | 39 | 0.0 | 0.0 | 0.00 | 0.29 | 0.00 | 91 | 1013.2 |
| 20260904065959 | 69 | 39 | 0.0 | 0.0 | 0.00 | 0.29 | 0.00 | 91 | 1013.2 |
| 20260904065458 | 69 | 39 | 0.0 | 0.0 | 0.00 | 0.29 | 0.00 | 91 | 1013.2 |
| 20260904064958 | 69 | 39 | 0.0 | 0.0 | 0.00 | 0.29 | 0.00 | 91 | 1013.1 |
| 20260904064459 | 69 | 39 | 0.0 | 2.0 | 0.00 | 0.29 | 0.00 | 91 | 1012.6 |
| 20260904063958 | 69 | 39 | 0.0 | 2.0 | 0.00 | 0.29 | 0.00 | 91 | 1012.4 |
| 20260904063457 | 69 | 266 | 0.0 | 0.0 | 0.00 | 0.29 | 0.00 | 91 | 1012.8 |
| 20260904062957 | 69 | 266 | 0.0 | 0.0 | 0.00 | 0.29 | 0.00 | 91 | 1012.9 |
| 20260904062457 | 69 | 266 | 0.0 | 0.0 | 0.00 | 0.29 | 0.00 | 91 | 1013.0 |
| 20260904061957 | 68 | 266 | 0.0 | 1.0 | 0.00 | 0.29 | 0.00 | 91 | 1013.2 |
| 20260904061458 | 68 | 266 | 0.0 | 1.0 | 0.00 | 0.29 | 0.00 | 91 | 1013.2 |
| 20260904060958 | 68 | 266 | 0.0 | 0.0 | 0.00 | 0.29 | 0.00 | 90 | 1013.3 |
| 20260904060458 | 68 | 266 | 0.0 | 0.0 | 0.00 | 0.29 | 0.00 | 90 | 1013.3 |
| 20260904055959 | 68 | 266 | 0.0 | 0.0 | 0.00 | 0.29 | 0.00 | 90 | 1013.5 |
| 20260904055457 | 68 | 266 | 0.0 | 0.0 | 0.00 | 0.29 | 0.00 | 90 | 1013.8 |
| 20260904054957 | 68 | 266 | 0.0 | 0.0 | 0.00 | 0.29 | 0.00 | 90 | 1013.9 |
| 20260904054457 | 68 | 266 | 0.0 | 0.0 | 0.00 | 0.29 | 0.00 | 90 | 1014.0 |
| 20260904050958 | 69 | 266 | 0.0 | 0.0 | 0.00 | 0.29 | 0.00 | 90 | 1013.4 |
| 20260904050458 | 69 | 266 | 0.0 | 0.0 | 0.00 | 0.29 | 0.00 | 90 | 1013.4 |
| 20260904045957 | 69 | 266 | 0.0 | 0.0 | 0.00 | 0.29 | 0.00 | 90 | 1013.4 |
| 20260904045457 | 69 | 266 | 0.0 | 0.0 | 0.00 | 0.29 | 0.00 | 90 | 1013.4 |
| 20260904044957 | 69 | 266 | 0.0 | 0.0 | 0.00 | 0.29 | 0.00 | 90 | 1013.5 |
| 20260904044457 | 69 | 266 | 0.0 | 0.0 | 0.00 | 0.29 | 0.00 | 90 | 1013.5 |
| 20260904043957 | 69 | 266 | 0.0 | 0.0 | 0.00 | 0.29 | 0.00 | 90 | 1013.6 |
| 20260904043456 | 69 | 266 | 0.0 | 0.0 | 0.00 | 0.29 | 0.00 | 90 | 1013.8 |
| 20260904042957 | 70 | 266 | 0.0 | 0.0 | 0.00 | 0.29 | 0.00 | 90 | 1013.8 |
| 20260904042456 | 70 | 266 | 0.0 | 0.0 | 0.00 | 0.29 | 0.00 | 90 | 1014.0 |
| 20260904041957 | 70 | 266 | 0.0 | 0.0 | 0.00 | 0.29 | 0.00 | 90 | 1014.0 |
| 20260904041456 | 70 | 266 | 0.0 | 0.0 | 0.00 | 0.29 | 0.00 | 90 | 1014.0 |
| 20260904040957 | 70 | 266 | 0.0 | 0.0 | 0.00 | 0.29 | 0.00 | 89 | 1014.0 |
| 20260904040456 | 70 | 266 | 0.0 | 0.0 | 0.00 | 0.29 | 0.00 | 89 | 1014.2 |
| 20260904040003 | 70 | 266 | 0.0 | 0.0 | 0.00 | 0.29 | 0.00 | 89 | 1014.2 |
| 20260904035458 | 70 | 266 | 0.0 | 0.0 | 0.00 | 0.29 | 0.29 | 89 | 1014.2 |
| 20260904034959 | 70 | 266 | 0.0 | 0.0 | 0.00 | 0.29 | 0.29 | 89 | 1014.1 |
| 20260904034458 | 70 | 266 | 0.0 | 1.0 | 0.00 | 0.29 | 0.29 | 89 | 1014.0 |
| 20260904033959 | 70 | 266 | 0.0 | 1.0 | 0.00 | 0.29 | 0.29 | 89 | 1014.1 |
| 20260904033459 | 70 | 266 | 0.0 | 0.0 | 0.00 | 0.29 | 0.29 | 89 | 1014.1 |
| 20260904032958 | 70 | 266 | 0.0 | 1.0 | 0.00 | 0.29 | 0.29 | 89 | 1014.3 |
| 20260904032458 | 71 | 266 | 0.0 | 1.0 | 0.00 | 0.29 | 0.29 | 89 | 1014.3 |
| 20260904031959 | 71 | 266 | 0.0 | 1.0 | 0.00 | 0.29 | 0.29 | 89 | 1014.2 |
| 20260904031458 | 71 | 266 | 0.0 | 1.0 | 0.00 | 0.29 | 0.29 | 89 | 1014.2 |
| 20260904030958 | 71 | 266 | 0.0 | 1.0 | 0.00 | 0.29 | 0.29 | 89 | 1014.1 |
| 20260904030458 | 71 | 213 | 0.0 | 1.0 | 0.00 | 0.29 | 0.29 | 89 | 1014.1 |
| 20260904022958 | 71 | 186 | 0.0 | 2.0 | 0.00 | 0.29 | 0.29 | 89 | 1014.0 |
| 20260904022458 | 71 | 228 | 0.0 | 1.0 | 0.00 | 0.29 | 0.29 | 89 | 1013.8 |
| 20260904021958 | 71 | 197 | 0.0 | 1.0 | 0.00 | 0.29 | 0.29 | 89 | 1013.8 |
| 20260904021459 | 71 | 253 | 0.0 | 1.0 | 0.00 | 0.29 | 0.29 | 89 | 1013.8 |
| 20260904020959 | 71 | 253 | 0.0 | 2.0 | 0.00 | 0.29 | 0.29 | 89 | 1014.1 |
| 20260904020459 | 71 | 166 | 0.0 | 2.0 | 0.00 | 0.29 | 0.29 | 89 | 1013.8 |
| 20260904020000 | 71 | 199 | 0.0 | 1.0 | 0.00 | 0.29 | 0.29 | 89 | 1013.7 |
| 20260904012459 | 71 | 271 | 1.0 | 2.0 | 0.00 | 0.29 | 0.29 | 87 | 1013.6 |
| 20260904011958 | 71 | 211 | 0.0 | 1.0 | 0.00 | 0.29 | 0.29 | 88 | 1013.5 |
| 20260904011458 | 71 | 211 | 0.0 | 0.0 | 0.00 | 0.29 | 0.29 | 87 | 1013.7 |
| 20260904010958 | 71 | 211 | 0.0 | 0.0 | 0.00 | 0.29 | 0.29 | 87 | 1013.5 |
| 20260904010459 | 72 | 211 | 0.0 | 0.0 | 0.00 | 0.29 | 0.29 | 86 | 1013.5 |
| 20260904005958 | 72 | 211 | 0.0 | 0.0 | 0.00 | 0.29 | 0.29 | 86 | 1013.5 |
| 20260904005458 | 72 | 211 | 0.0 | 0.0 | 0.00 | 0.29 | 0.29 | 86 | 1013.3 |
| 20260904004958 | 72 | 211 | 0.0 | 0.0 | 0.00 | 0.29 | 0.29 | 86 | 1013.3 |
| 20260904004459 | 72 | 211 | 0.0 | 0.0 | 0.00 | 0.29 | 0.29 | 86 | 1013.3 |
| 20260904003958 | 73 | 211 | 0.0 | 0.0 | 0.00 | 0.29 | 0.29 | 85 | 1013.2 |
| 20260904003458 | 73 | 211 | 0.0 | 0.0 | 0.00 | 0.29 | 0.29 | 85 | 1013.3 |
| 20260904002958 | 73 | 211 | 0.0 | 0.0 | 0.00 | 0.29 | 0.29 | 86 | 1013.2 |
| 20260904002458 | 73 | 211 | 0.0 | 0.0 | 0.00 | 0.29 | 0.29 | 86 | 1013.2 |
| 20260904001959 | 73 | 211 | 0.0 | 0.0 | 0.00 | 0.29 | 0.29 | 86 | 1013.1 |
| 20260904001458 | 74 | 211 | 0.0 | 0.0 | 0.00 | 0.29 | 0.29 | 86 | 1013.0 |
| 20260904000958 | 74 | 211 | 0.0 | 0.0 | 0.00 | 0.29 | 0.29 | 86 | 1012.7 |
| 20260904000458 | 74 | 211 | 0.0 | 0.0 | 0.00 | 0.29 | 0.29 | 86 | 1012.7 |
| 20260903235959 | 74 | 211 | 0.0 | 0.0 | 0.00 | 0.29 | 0.29 | 86 | 1012.7 |
| 20260903235458 | 74 | 211 | 0.0 | 0.0 | 0.00 | 0.29 | 0.29 | 86 | 1013.0 |
| 20260903234958 | 74 | 211 | 0.0 | 0.0 | 0.00 | 0.29 | 0.29 | 85 | 1013.0 |
| 20260903234458 | 74 | 211 | 0.0 | 1.0 | 0.00 | 0.29 | 0.29 | 85 | 1013.1 |
| 20260903233958 | 75 | 211 | 0.0 | 1.0 | 0.00 | 0.29 | 0.29 | 84 | 1013.1 |
| 20260903233459 | 75 | 211 | 0.0 | 1.0 | 0.00 | 0.29 | 0.29 | 84 | 1013.0 |
| 20260903232958 | 75 | 211 | 0.0 | 2.0 | 0.00 | 0.29 | 0.29 | 84 | 1012.9 |
| 20260903232458 | 75 | 211 | 0.0 | 2.0 | 0.00 | 0.29 | 0.29 | 85 | 1012.7 |
| 20260903231959 | 75 | 97 | 0.0 | 0.0 | 0.00 | 0.29 | 0.29 | 84 | 1012.8 |
| 20260903231458 | 75 | 97 | 0.0 | 1.0 | 0.00 | 0.29 | 0.29 | 84 | 1012.8 |
| 20260903230958 | 75 | 97 | 0.0 | 3.0 | 0.00 | 0.29 | 0.29 | 84 | 1012.9 |
| 20260903230459 | 75 | 49 | 1.0 | 3.0 | 0.00 | 0.29 | 0.29 | 84 | 1012.7 |
| 20260903225958 | 75 | 167 | 0.0 | 1.0 | 0.00 | 0.29 | 0.29 | 84 | 1012.6 |
| 20260903225458 | 75 | 167 | 0.0 | 3.0 | 0.00 | 0.29 | 0.29 | 85 | 1012.8 |
| 20260903224959 | 75 | 167 | 1.0 | 3.0 | 0.00 | 0.29 | 0.29 | 85 | 1012.6 |
| 20260903224458 | 75 | 49 | 1.0 | 4.0 | 0.00 | 0.29 | 0.29 | 85 | 1012.6 |
| 20260903223958 | 75 | 345 | 1.0 | 4.0 | 0.00 | 0.29 | 0.29 | 84 | 1012.6 |
| 20260903223458 | 75 | 163 | 0.0 | 4.0 | 0.00 | 0.29 | 0.29 | 85 | 1012.6 |
| 20260903222959 | 76 | 244 | 1.0 | 4.0 | 0.00 | 0.29 | 0.29 | 85 | 1012.5 |
| 20260903222458 | 76 | 216 | 1.0 | 4.0 | 0.00 | 0.29 | 0.29 | 84 | 1012.5 |
| 20260903214458 | 76 | 83 | 0.0 | 3.0 | 0.00 | 0.29 | 0.29 | 85 | 1013.0 |
| 20260903213958 | 76 | 20 | 1.0 | 3.0 | 0.00 | 0.29 | 0.29 | 85 | 1013.0 |
| 20260903213459 | 75 | 41 | 0.0 | 4.0 | 0.00 | 0.29 | 0.29 | 87 | 1013.0 |
| 20260903212959 | 74 | 271 | 1.0 | 2.0 | 0.00 | 0.29 | 0.29 | 89 | 1013.0 |
| 20260903212458 | 73 | 276 | 0.0 | 3.0 | 0.00 | 0.29 | 0.29 | 89 | 1012.9 |
| 20260903211958 | 73 | 64 | 1.0 | 3.0 | 0.00 | 0.29 | 0.29 | 89 | 1012.9 |
| 20260903211458 | 73 | 72 | 1.0 | 3.0 | 0.00 | 0.29 | 0.29 | 89 | 1012.8 |
| 20260903210958 | 73 | 85 | 0.0 | 3.0 | 0.00 | 0.29 | 0.29 | 89 | 1013.0 |
| 20260903210458 | 73 | 136 | 1.0 | 3.0 | 0.00 | 0.29 | 0.29 | 89 | 1013.0 |
| 20260903205959 | 73 | 75 | 1.0 | 4.0 | 0.00 | 0.29 | 0.29 | 90 | 1013.0 |
| 20260903205458 | 73 | 41 | 0.0 | 4.0 | 0.00 | 0.29 | 0.29 | 90 | 1012.7 |
| 20260903204958 | 72 | 49 | 1.0 | 4.0 | 0.00 | 0.29 | 0.29 | 90 | 1012.5 |
| 20260903204458 | 72 | 16 | 1.0 | 5.0 | 0.00 | 0.29 | 0.29 | 90 | 1012.6 |
| 20260903203958 | 72 | 129 | 1.0 | 5.0 | 0.00 | 0.29 | 0.29 | 90 | 1012.8 |
| 20260903203459 | 72 | 49 | 0.0 | 3.0 | 0.00 | 0.29 | 0.29 | 90 | 1013.0 |
| 20260903202958 | 72 | 103 | 0.0 | 4.0 | 0.00 | 0.29 | 0.29 | 90 | 1013.0 |
| 20260903202458 | 72 | 129 | 0.0 | 2.0 | 0.00 | 0.29 | 0.29 | 90 | 1013.4 |
| 20260903201957 | 73 | 129 | 1.0 | 2.0 | 0.00 | 0.29 | 0.29 | 90 | 1013.2 |
| 20260903201458 | 73 | 76 | 0.0 | 2.0 | 0.00 | 0.29 | 0.29 | 90 | 1013.5 |
| 20260903200958 | 73 | 68 | 0.0 | 1.0 | 0.00 | 0.29 | 0.29 | 90 | 1013.5 |
| 20260903193458 | 74 | 101 | 0.0 | 2.0 | 0.01 | 0.29 | 0.29 | 90 | 1013.8 |
| 20260903192958 | 74 | 101 | 1.0 | 2.0 | 0.03 | 0.29 | 0.29 | 90 | 1013.9 |
| 20260903192458 | 75 | 64 | 0.0 | 1.0 | 0.03 | 0.29 | 0.29 | 91 | 1014.1 |
| 20260903191958 | 73 | 41 | 0.0 | 1.0 | 0.03 | 0.29 | 0.29 | 91 | 1014.3 |
| 20260903191458 | 73 | 77 | 0.0 | 2.0 | 0.03 | 0.29 | 0.29 | 91 | 1014.5 |
| 20260903190958 | 73 | 77 | 1.0 | 2.0 | 0.03 | 0.29 | 0.29 | 90 | 1014.4 |
| 20260903190458 | 73 | 108 | 0.0 | 2.0 | 0.03 | 0.29 | 0.29 | 90 | 1014.4 |
| 20260903182959 | 76 | 211 | 1.0 | 4.0 | 0.24 | 0.26 | 0.26 | 89 | 1014.9 |
| 20260903182458 | 77 | 212 | 1.0 | 5.0 | 0.24 | 0.26 | 0.26 | 89 | 1014.7 |
| 20260903181958 | 76 | 211 | 1.0 | 5.0 | 0.24 | 0.26 | 0.26 | 89 | 1014.2 |